When you browse on this site, cookies collect data to enhance your experience and personalize the content and advertising you see.
Visit our Privacy Policy to learn more. By continuing to use the site, you agree to this use of cookies and data.
  • In Hungary
  • List of Countries
  • For 7 days
  • Water Temperature
  • Weather Map
  • News
  • Weather Widgets
  • user-avatar
    Login

    Hourly Weather Zimnik

    Today, 23 January, Thursday

    Time Temperature Precipitation Wind Pressure Humidity
    00:00 -6°C° 0 mm 6 mps 734 mmHg 78%
    01:00 -6°C° 0 mm 6 mps 735 mmHg 76%
    02:00 -8°C° 0 mm 6 mps 736 mmHg 74%
    03:00 -8°C° 0 mm 6 mps 736 mmHg 74%
    04:00 -8°C° 0 mm 6 mps 736 mmHg 73%
    05:00 -8°C° 0 mm 6 mps 737 mmHg 72%
    06:00 -8°C° 0 mm 6 mps 737 mmHg 69%
    07:00 -8°C° 0 mm 6 mps 738 mmHg 65%
    08:00 -8°C° 0 mm 6 mps 739 mmHg 62%
    09:00 -8°C° 0 mm 6 mps 739 mmHg 60%
    10:00 -8°C° 0 mm 6 mps 739 mmHg 59%
    11:00 -6°C° 0 mm 6 mps 740 mmHg 57%
    12:00 -6°C° 0 mm 6 mps 740 mmHg 59%
    13:00 -6°C° 0 mm 6 mps 740 mmHg 60%
    14:00 -5°C° 0 mm 6 mps 740 mmHg 62%
    15:00 -5°C° 0 mm 5 mps 740 mmHg 64%
    16:00 -6°C° 0 mm 5 mps 740 mmHg 67%
    17:00 -5°C° 0 mm 4 mps 740 mmHg 69%
    18:00 -5°C° 0 mm 4 mps 740 mmHg 71%
    19:00 -5°C° 0 mm 3 mps 740 mmHg 74%
    20:00 -5°C° 0 mm 3 mps 740 mmHg 76%
    21:00 -5°C° 0 mm 3 mps 740 mmHg 80%
    22:00 -5°C° 0 mm 3 mps 740 mmHg 85%
    23:00 -4°C° 0 mm 3 mps 740 mmHg 89%

    Tomorrow, 24 January, Friday

    Time Temperature Precipitation Wind Pressure Humidity
    00:00 -4°C° 0 mm 3 mps 739 mmHg 89%
    01:00 -4°C° 0 mm 4 mps 739 mmHg 88%
    02:00 -3°C° 0 mm 4 mps 738 mmHg 88%
    03:00 -3°C° 0 mm 4 mps 737 mmHg 88%
    04:00 -3°C° 0 mm 4 mps 736 mmHg 87%
    05:00 -4°C° 0 mm 5 mps 735 mmHg 87%
    06:00 -4°C° 0.2 mm 5 mps 734 mmHg 90%
    07:00 -2°C° 0.2 mm 5 mps 734 mmHg 93%
    08:00 -2°C° 0.2 mm 5 mps 733 mmHg 96%
    09:00 -1°C° 0.1 mm 5 mps 733 mmHg 96%
    10:00 0°C° 0.1 mm 5 mps 732 mmHg 95%
    11:00 0°C° 0.1 mm 5 mps 731 mmHg 95%
    12:00 +1°C° 0 mm 5 mps 731 mmHg 93%
    13:00 +1°C° 0 mm 5 mps 731 mmHg 92%
    14:00 +2°C° 0 mm 5 mps 730 mmHg 90%
    15:00 +1°C° 0.2 mm 5 mps 730 mmHg 90%
    16:00 +1°C° 0.2 mm 5 mps 730 mmHg 91%
    17:00 +1°C° 0.2 mm 6 mps 730 mmHg 91%
    18:00 +1°C° 0.7 mm 5 mps 730 mmHg 92%
    19:00 0°C° 0.7 mm 4 mps 730 mmHg 94%
    20:00 -1°C° 0.7 mm 4 mps 731 mmHg 95%
    21:00 -1°C° 0.3 mm 4 mps 731 mmHg 95%
    22:00 -1°C° 0.3 mm 4 mps 731 mmHg 94%
    23:00 -1°C° 0.3 mm 4 mps 730 mmHg 94%

    Day after tomorrow, 25 January, Saturday

    Time Temperature Precipitation Wind Pressure Humidity
    00:00 -1°C° 0.2 mm 4 mps 730 mmHg 93%
    01:00 -1°C° 0.2 mm 4 mps 730 mmHg 92%
    02:00 -1°C° 0.2 mm 4 mps 730 mmHg 90%
    03:00 -1°C° 0 mm 4 mps 730 mmHg 90%
    04:00 -2°C° 0 mm 4 mps 730 mmHg 89%
    05:00 -2°C° 0 mm 5 mps 730 mmHg 88%
    06:00 -2°C° 0 mm 5 mps 730 mmHg 85%
    07:00 -2°C° 0 mm 5 mps 729 mmHg 82%
    08:00 -2°C° 0 mm 6 mps 729 mmHg 79%
    09:00 -2°C° 0 mm 6 mps 729 mmHg 76%
    10:00 -2°C° 0 mm 6 mps 729 mmHg 73%
    11:00 -2°C° 0 mm 7 mps 729 mmHg 70%
    12:00 -2°C° 0.3 mm 7 mps 729 mmHg 73%
    13:00 -2°C° 0.3 mm 6 mps 729 mmHg 76%
    14:00 -3°C° 0.3 mm 6 mps 729 mmHg 79%
    15:00 -3°C° 0.3 mm 6 mps 730 mmHg 76%
    16:00 -3°C° 0.3 mm 6 mps 730 mmHg 72%
    17:00 -4°C° 0.3 mm 6 mps 730 mmHg 69%
    18:00 -4°C° 0 mm 6 mps 731 mmHg 71%
    19:00 -4°C° 0 mm 6 mps 732 mmHg 73%
    20:00 -5°C° 0 mm 5 mps 732 mmHg 75%
    21:00 -5°C° 0 mm 5 mps 733 mmHg 75%
    22:00 -5°C° 0 mm 5 mps 734 mmHg 75%
    23:00 -5°C° 0 mm 5 mps 734 mmHg 75%

    26 January, Sunday

    Time Temperature Precipitation Wind Pressure Humidity
    00:00 -5°C° 0 mm 5 mps 735 mmHg 76%
    01:00 -5°C° 0 mm 5 mps 736 mmHg 77%
    02:00 -5°C° 0 mm 5 mps 736 mmHg 79%
    03:00 -5°C° 0 mm 5 mps 737 mmHg 79%
    04:00 -5°C° 0 mm 4 mps 737 mmHg 79%
    05:00 -5°C° 0 mm 4 mps 738 mmHg 80%
    06:00 -5°C° 0 mm 4 mps 739 mmHg 80%
    07:00 -5°C° 0 mm 3 mps 740 mmHg 80%
    08:00 -5°C° 0 mm 3 mps 740 mmHg 81%
    09:00 -5°C° 0 mm 3 mps 741 mmHg 78%
    10:00 -4°C° 0 mm 3 mps 742 mmHg 76%
    11:00 -4°C° 0 mm 3 mps 742 mmHg 74%
    12:00 -2°C° 0 mm 3 mps 742 mmHg 72%
    13:00 -2°C° 0 mm 2 mps 743 mmHg 70%
    14:00 -2°C° 0 mm 2 mps 743 mmHg 69%
    15:00 -2°C° 0 mm 2 mps 743 mmHg 72%
    16:00 -3°C° 0 mm 2 mps 743 mmHg 76%
    17:00 -4°C° 0 mm 2 mps 743 mmHg 80%
    18:00 -3°C° 0 mm 2 mps 743 mmHg 80%
    19:00 -3°C° 0 mm 2 mps 743 mmHg 80%
    20:00 -3°C° 0 mm 2 mps 743 mmHg 80%
    21:00 -2°C° 0 mm 2 mps 743 mmHg 85%
    22:00 -2°C° 0 mm 3 mps 743 mmHg 90%
    23:00 -2°C° 0 mm 3 mps 742 mmHg 95%

    27 January, Monday

    Time Temperature Precipitation Wind Pressure Humidity
    00:00 -1°C° 0.1 mm 3 mps 742 mmHg 96%
    01:00 -1°C° 0.1 mm 3 mps 742 mmHg 96%
    02:00 0°C° 0.1 mm 3 mps 742 mmHg 97%
    03:00 -1°C° 0.1 mm 4 mps 741 mmHg 97%
    04:00 -1°C° 0.1 mm 4 mps 741 mmHg 97%
    05:00 -2°C° 0.1 mm 4 mps 740 mmHg 97%
    06:00 -2°C° 0.1 mm 4 mps 740 mmHg 96%
    07:00 -2°C° 0.1 mm 4 mps 740 mmHg 96%
    08:00 -1°C° 0.1 mm 3 mps 740 mmHg 96%
    09:00 0°C° 0 mm 3 mps 740 mmHg 96%
    10:00 0°C° 0 mm 3 mps 740 mmHg 95%
    11:00 -1°C° 0 mm 4 mps 740 mmHg 95%
    12:00 0°C° 0.1 mm 3 mps 740 mmHg 95%
    13:00 0°C° 0.1 mm 3 mps 739 mmHg 96%
    14:00 0°C° 0.1 mm 3 mps 739 mmHg 96%
    15:00 0°C° 0.2 mm 3 mps 739 mmHg 97%
    16:00 -1°C° 0.2 mm 3 mps 738 mmHg 97%
    17:00 -1°C° 0.2 mm 3 mps 738 mmHg 97%
    18:00 -1°C° 0.4 mm 3 mps 738 mmHg 97%
    19:00 -1°C° 0.4 mm 3 mps 737 mmHg 97%
    20:00 -1°C° 0.4 mm 3 mps 737 mmHg 97%
    21:00 -1°C° 0.2 mm 2 mps 736 mmHg 97%
    22:00 -1°C° 0.2 mm 2 mps 736 mmHg 97%
    23:00 -1°C° 0.2 mm 2 mps 736 mmHg 97%

    28 January, Tuesday

    Time Temperature Precipitation Wind Pressure Humidity
    00:00 -1°C° 0.4 mm 2 mps 735 mmHg 97%
    01:00 -1°C° 0.4 mm 3 mps 735 mmHg 97%
    02:00 -1°C° 0.4 mm 3 mps 734 mmHg 97%
    03:00 -1°C° 0.3 mm 3 mps 734 mmHg 97%
    04:00 -1°C° 0.3 mm 3 mps 734 mmHg 97%
    05:00 -1°C° 0.3 mm 3 mps 734 mmHg 97%
    06:00 -1°C° 0.4 mm 3 mps 734 mmHg 97%
    07:00 -1°C° 0.4 mm 3 mps 734 mmHg 97%
    08:00 -1°C° 0.4 mm 4 mps 734 mmHg 97%
    09:00 -1°C° 0.1 mm 4 mps 735 mmHg 94%
    10:00 -1°C° 0.1 mm 4 mps 735 mmHg 91%
    11:00 -1°C° 0.1 mm 4 mps 736 mmHg 89%
    12:00 -1°C° 0 mm 4 mps 736 mmHg 87%
    13:00 0°C° 0 mm 3 mps 736 mmHg 86%
    14:00 0°C° 0 mm 3 mps 737 mmHg 84%
    15:00 -1°C° 0 mm 2 mps 737 mmHg 87%
    16:00 -2°C° 0 mm 2 mps 737 mmHg 90%
    17:00 -3°C° 0 mm 2 mps 737 mmHg 93%
    18:00 -3°C° 0 mm 2 mps 737 mmHg 93%
    19:00 -4°C° 0 mm 3 mps 737 mmHg 93%
    20:00 -4°C° 0 mm 3 mps 737 mmHg 92%
    21:00 -2°C° 0 mm 3 mps 736 mmHg 89%
    22:00 -3°C° 0 mm 4 mps 736 mmHg 87%
    23:00 -2°C° 0 mm 4 mps 735 mmHg 84%
    Show more